Visalia, CA

5:06 AM PDT on June 20, 2018 (GMT -0700)
Visalia Municipal

Weather History for KVIS - October, 2017

Change the Weather History Date:

Friday, October 13, 2017

  Actual Average Record
Temperature  
Mean Temperature 58 °F -  
Max Temperature 75 °F 79 °F 98 °F (1950)
Min Temperature 43 °F 53 °F 37 °F (2008)
Degree Days  
Heating Degree Days 7    
Growing Degree Days 8 (Base 50)    
Moisture  
Dew Point 38 °F    
Average Humidity 52    
Maximum Humidity 80    
Minimum Humidity 20    
Precipitation  
Precipitation 0.00 in - - ()
Sea Level Pressure  
Sea Level Pressure 30.11 in    
Wind  
Wind Speed 4 mph (SSE)    
Max Wind Speed 7 mph    
Max Gust Speed -    
Visibility 10 miles    
Events      
Averages and records for this station are not official NWS values.
T = Trace of Precipitation, MM = Missing Value Source: NWS Daily Summary

Daily Weather History Graph

Daily Weather History Graph

Search for Another Location

Airport or City:

Astronomy

Oct. 13, 2017 Rise Set
Actual Time 7:03 AM PDT 6:23 PM PDT
Civil Twilight 6:37 AM PDT 6:49 PM PDT
Nautical Twilight 6:07 AM PDT 7:19 PM PDT
Astronomical Twilight 5:37 AM PDT 7:49 PM PDT
Moon 12:43 AM PDT (10/13) 3:01 PM PDT (10/13)
Length of Visible Light 12h 12m
Length of Day
11h 20m
Last Quarter, 36% of the Moon is Illuminated
Oct 13
Last Quarter
Oct 19
New
Oct 27
First Quarter
Nov 3
Full
Nov 10
Last Quarter

Hourly Weather History & Observations

Time (PDT) Temp. Windchill Dew Point Humidity Pressure Visibility Wind Dir Wind Speed Gust Speed Precip Events Conditions
12:56 AM 48.9 °F - 41.0 °F 74% 30.10 in 8.0 mi East 4.6 mph - N/A   Clear
1:56 AM 48.9 °F - 39.9 °F 71% 30.11 in 9.0 mi East 4.6 mph - N/A   Clear
2:56 AM 48.9 °F - 39.9 °F 71% 30.11 in 9.0 mi East 5.8 mph - N/A   Clear
3:56 AM 48.0 °F - 39.9 °F 74% 30.11 in 10.0 mi Calm Calm - N/A   Clear
4:56 AM 46.0 °F - 39.0 °F 76% 30.11 in 10.0 mi Calm Calm - N/A   Clear
5:56 AM 45.0 °F - 39.0 °F 80% 30.12 in 10.0 mi Calm Calm - N/A   Clear
6:56 AM 43.0 °F - 37.0 °F 80% 30.13 in 10.0 mi Calm Calm - N/A   Clear
7:56 AM 44.1 °F 42.5 °F 37.9 °F 79% 30.14 in 10.0 mi SE 3.5 mph - N/A   Clear
8:56 AM 53.1 °F - 37.0 °F 55% 30.15 in 9.0 mi SE 3.5 mph - N/A   Clear
9:56 AM 59.0 °F - 37.0 °F 44% 30.17 in 10.0 mi South 4.6 mph - N/A   Clear
10:56 AM 64.0 °F - 36.0 °F 35% 30.16 in 9.0 mi Variable 4.6 mph - N/A   Clear
11:56 AM 68.0 °F - 37.0 °F 32% 30.15 in 9.0 mi South 5.8 mph - N/A   Clear
12:56 PM 70.0 °F - 37.9 °F 31% 30.12 in 9.0 mi SSE 5.8 mph - N/A   Clear
1:56 PM 72.0 °F - 35.1 °F 26% 30.09 in 10.0 mi WNW 3.5 mph - N/A   Clear
2:56 PM 73.9 °F - 30.0 °F 20% 30.07 in 10.0 mi WNW 6.9 mph - N/A   Clear
3:56 PM 73.9 °F - 33.1 °F 22% 30.06 in 10.0 mi NW 6.9 mph - N/A   Clear
5:56 PM 69.1 °F - 37.9 °F 32% 30.06 in 10.0 mi WNW 5.8 mph - N/A   Clear
6:56 PM 64.0 °F - 37.9 °F 38% 30.07 in 8.0 mi WNW 5.8 mph - N/A   Clear
7:56 PM 63.0 °F - 37.0 °F 38% 30.08 in 10.0 mi NW 3.5 mph - N/A   Clear
8:56 PM 55.0 °F - 37.9 °F 53% 30.10 in 10.0 mi Calm Calm - N/A   Clear
9:56 PM 55.0 °F - 39.0 °F 55% 30.11 in 10.0 mi Calm Calm - N/A   Clear
10:56 PM 54.0 °F - 39.0 °F 57% 30.12 in 10.0 mi Calm Calm - N/A   Clear
11:56 PM 53.1 °F - 39.0 °F 59% 30.11 in 10.0 mi East 4.6 mph - N/A   Clear